Precipitable_Water
1.24 1.23 1.26 1.28 1.39 1.44 1.46 1.48 1.50 1.49 1.51 1.51 1.52 1.57 1.58 1.53 1.45 1.38 1.32 1.28 1.24 1.27 1.30 1.26 1.20 1.15 1.10 1.08 1.12 1.14 1.10 1.03 0.93 0.79 0.71 0.83 0.83 0.88 1.04 1.14 1.16 1.13 1.09 1.02 0.98 0.92 0.92 0.88 0.96 1.15 1.18 1.18 1.19 1.19 1.21 1.19 1.22 1.25 1.25 1.27 1.27 1.26 1.23
1.34 1.31 1.34 1.33 1.32 1.40 1.43 1.45 1.43 1.44 1.47 1.51 1.51 1.52 1.57 1.56 1.52 1.46 1.40 1.31 1.27 1.27 1.30 1.27 1.24 1.21 1.14 1.06 1.04 1.06 1.06 1.05 0.99 0.91 0.82 0.78 0.82 0.81 0.84 0.94 1.05 1.03 1.02 0.98 0.99 1.05 0.97 0.90 0.89 0.91 0.93 1.11 1.14 1.14 1.17 1.21 1.21 1.25 1.28 1.28 1.30 1.29 1.26
1.15 1.20 1.29 1.31 1.29 1.33 1.36 1.41 1.42 1.43 1.43 1.45 1.48 1.50 1.53 1.57 1.54 1.50 1.45 1.40 1.37 1.32 1.29 1.26 1.27 1.27 1.22 1.10 0.99 0.97 0.99 0.97 0.99 0.94 0.85 0.80 0.80 0.80 0.77 0.74 0.86 0.94 0.92 0.92 0.94 0.96 1.03 1.03 0.89 0.89 0.92 0.90 0.83 0.95 1.11 1.11 1.16 1.22 1.30 1.32 1.29 1.27 1.25
1.04 1.09 1.13 1.20 1.30 1.32 1.30 1.32 1.36 1.40 1.43 1.43 1.49 1.52 1.55 1.56 1.54 1.51 1.45 1.41 1.41 1.39 1.33 1.28 1.26 1.27 1.25 1.19 1.11 1.00 0.93 0.88 0.86 0.88 0.88 0.84 0.82 0.78 0.75 0.69 0.69 0.85 0.84 0.79 0.80 0.86 0.91 0.94 0.94 0.91 0.94 0.96 0.89 0.87 0.99 1.11 1.15 1.23 1.30 1.32 1.27 1.25 1.25
0.98 1.00 1.02 1.06 1.14 1.16 1.20 1.22 1.29 1.36 1.39 1.43 1.45 1.47 1.50 1.52 1.51 1.49 1.47 1.43 1.39 1.37 1.33 1.31 1.29 1.30 1.29 1.27 1.22 1.12 0.99 0.91 0.85 0.80 0.81 0.81 0.79 0.78 0.77 0.77 0.71 0.74 0.82 0.83 0.86 0.93 0.94 0.95 0.96 0.94 0.93 1.00 1.02 0.97 1.03 1.10 1.18 1.21 1.29 1.30 1.31 1.29 1.29
0.97 0.96 0.97 0.99 1.04 1.07 1.13 1.15 1.15 1.18 1.29 1.32 1.36 1.39 1.43 1.46 1.47 1.45 1.44 1.40 1.37 1.36 1.33 1.30 1.27 1.30 1.31 1.28 1.24 1.18 1.13 1.04 0.93 0.84 0.77 0.74 0.75 0.74 0.74 0.81 0.78 0.72 0.71 0.76 0.81 0.86 0.97 1.01 1.02 0.97 1.01 1.06 0.90 0.91 1.00 1.04 1.02 1.18 1.27 1.30 1.32 1.34 1.32
0.92 0.97 0.96 0.96 1.00 1.03 1.08 1.11 1.11 1.11 1.14 1.21 1.29 1.35 1.44 1.47 1.46 1.46 1.46 1.43 1.41 1.37 1.34 1.32 1.30 1.31 1.32 1.28 1.25 1.19 1.15 1.17 1.15 1.02 0.89 0.81 0.80 0.79 0.82 0.81 0.80 0.74 0.72 0.75 0.79 0.84 0.89 0.94 0.96 0.97 0.99 1.04 1.03 0.95 1.01 0.96 1.04 1.03 1.14 1.26 1.31 1.34 1.34
0.83 0.90 0.97 0.98 0.97 0.97 1.03 1.07 1.10 1.14 1.14 1.16 1.21 1.32 1.44 1.45 1.43 1.45 1.47 1.45 1.44 1.41 1.38 1.35 1.32 1.31 1.28 1.24 1.21 1.17 1.16 1.18 1.18 1.13 1.02 0.94 0.87 0.85 0.83 0.81 0.84 0.84 0.76 0.76 0.80 0.80 0.88 0.93 0.94 1.00 1.02 0.94 0.96 0.97 0.89 0.90 0.94 0.97 1.00 1.18 1.28 1.28 1.31
0.79 0.81 0.86 0.93 0.97 0.98 0.99 1.04 1.07 1.12 1.15 1.16 1.19 1.24 1.32 1.38 1.37 1.36 1.40 1.43 1.44 1.43 1.39 1.35 1.32 1.31 1.28 1.24 1.21 1.20 1.16 1.21 1.19 1.16 1.10 1.05 0.97 0.94 0.89 0.85 0.84 0.84 0.85 0.79 0.78 0.80 0.78 0.80 0.87 0.93 0.94 0.88 0.77 0.70 0.77 0.72 0.81 0.87 1.10 1.07 1.21 1.29 1.30
0.76 0.76 0.77 0.81 0.87 0.94 0.98 1.01 1.03 1.06 1.12 1.16 1.17 1.21 1.24 1.32 1.35 1.34 1.34 1.35 1.37 1.37 1.36 1.35 1.33 1.32 1.30 1.26 1.21 1.19 1.18 1.22 1.19 1.12 1.11 1.09 1.08 1.01 0.96 0.88 0.81 0.82 0.85 0.85 0.80 0.79 0.78 0.75 0.72 0.74 0.79 0.76 0.75 0.63 0.57 0.62 0.70 0.76 0.94 1.09 0.97 1.11 1.26
0.74 0.76 0.78 0.78 0.80 0.85 0.92 0.97 0.99 1.01 1.02 1.08 1.14 1.18 1.23 1.26 1.32 1.35 1.33 1.31 1.32 1.34 1.33 1.31 1.28 1.28 1.30 1.27 1.21 1.18 1.17 1.17 1.13 1.12 1.13 1.13 1.13 1.13 1.05 0.94 0.85 0.82 0.86 0.87 0.81 0.79 0.78 0.76 0.74 0.72 0.71 0.72 0.71 0.62 0.67 0.66 0.66 0.80 0.83 1.05 1.10 1.04 1.19
0.73 0.74 0.76 0.78 0.78 0.77 0.78 0.86 0.93 1.00 1.03 1.04 1.06 1.12 1.19 1.23 1.28 1.34 1.36 1.33 1.32 1.30 1.30 1.26 1.23 1.21 1.22 1.19 1.19 1.15 1.13 1.09 1.03 1.04 1.11 1.16 1.18 1.20 1.15 0.99 0.87 0.80 0.83 0.85 0.83 0.80 0.78 0.79 0.77 0.74 0.73 0.74 0.75 0.76 0.79 0.79 0.69 0.79 0.94 0.90 1.03 1.14 1.13
0.73 0.73 0.74 0.75 0.75 0.76 0.77 0.78 0.82 0.88 0.96 0.99 0.99 1.04 1.11 1.17 1.22 1.23 1.28 1.33 1.36 1.34 1.27 1.22 1.21 1.20 1.20 1.15 1.10 1.08 1.09 1.08 1.05 1.06 1.11 1.19 1.23 1.24 1.21 1.10 0.95 0.85 0.83 0.81 0.79 0.78 0.76 0.80 0.80 0.76 0.74 0.74 0.76 0.82 0.86 0.85 0.79 0.72 0.91 0.91 0.96 1.07 1.17
0.71 0.73 0.73 0.74 0.74 0.75 0.76 0.78 0.78 0.81 0.89 0.95 0.99 0.98 1.01 1.10 1.18 1.23 1.25 1.25 1.27 1.31 1.32 1.28 1.27 1.23 1.19 1.15 1.17 1.19 1.21 1.18 1.10 1.09 1.14 1.21 1.30 1.32 1.31 1.25 1.12 1.00 0.95 0.90 0.90 0.90 0.87 0.83 0.82 0.80 0.79 0.77 0.76 0.83 0.87 0.85 0.80 0.77 0.88 1.02 1.00 1.01 1.14
0.72 0.72 0.71 0.72 0.71 0.72 0.74 0.75 0.78 0.78 0.79 0.86 0.94 0.96 0.97 1.01 1.10 1.16 1.20 1.21 1.21 1.21 1.23 1.28 1.32 1.29 1.23 1.18 1.16 1.22 1.22 1.18 1.12 1.08 1.10 1.15 1.27 1.35 1.35 1.32 1.27 1.20 1.13 1.03 1.00 0.99 0.97 0.93 0.90 0.86 0.83 0.80 0.77 0.80 0.90 0.87 0.84 0.80 0.76 0.90 0.94 1.05 1.10
0.71 0.70 0.69 0.69 0.70 0.71 0.72 0.73 0.76 0.75 0.76 0.78 0.86 0.91 0.93 0.97 1.01 1.08 1.13 1.17 1.19 1.18 1.19 1.22 1.28 1.29 1.27 1.23 1.17 1.14 1.13 1.09 1.03 0.98 0.96 1.00 1.12 1.25 1.27 1.24 1.23 1.25 1.26 1.20 1.15 1.11 1.10 1.07 1.05 0.96 0.88 0.86 0.81 0.80 0.87 0.93 0.88 0.80 0.77 0.78 0.89 0.92 0.98
0.71 0.71 0.69 0.69 0.68 0.69 0.70 0.71 0.73 0.73 0.74 0.75 0.77 0.85 0.90 0.91 0.95 0.98 1.03 1.09 1.13 1.13 1.13 1.16 1.19 1.23 1.24 1.23 1.19 1.16 1.14 1.10 1.04 0.98 0.94 0.93 0.97 1.09 1.17 1.19 1.16 1.15 1.17 1.16 1.19 1.20 1.20 1.18 1.15 1.09 1.00 0.94 0.89 0.85 0.88 0.93 0.95 0.86 0.79 0.74 0.83 0.88 0.96
0.73 0.72 0.72 0.72 0.71 0.71 0.70 0.70 0.70 0.70 0.71 0.71 0.74 0.78 0.86 0.90 0.92 0.94 0.94 0.95 1.01 1.06 1.09 1.12 1.12 1.13 1.15 1.17 1.16 1.16 1.15 1.15 1.13 1.10 1.02 0.95 0.96 1.01 1.11 1.18 1.17 1.17 1.15 1.10 1.09 1.12 1.18 1.18 1.19 1.16 1.09 1.04 0.97 0.92 0.89 0.90 0.90 0.91 0.85 0.78 0.79 0.90 0.97
0.73 0.73 0.74 0.74 0.74 0.74 0.73 0.72 0.71 0.70 0.70 0.68 0.69 0.72 0.77 0.84 0.87 0.88 0.90 0.91 0.93 0.96 1.03 1.10 1.12 1.09 1.08 1.12 1.15 1.17 1.16 1.13 1.15 1.16 1.10 0.97 1.01 1.08 1.00 1.05 1.13 1.16 1.15 1.13 1.09 1.08 1.08 1.10 1.16 1.15 1.12 1.10 1.07 1.02 0.93 0.88 0.89 0.89 0.89 0.86 0.83 0.84 0.94
0.73 0.74 0.76 0.77 0.78 0.78 0.76 0.75 0.73 0.71 0.71 0.69 0.68 0.67 0.71 0.78 0.84 0.87 0.88 0.89 0.90 0.92 0.94 0.99 1.04 1.07 1.08 1.10 1.13 1.18 1.18 1.15 1.13 1.15 1.14 1.04 1.02 1.08 1.09 1.06 1.10 1.13 1.11 1.13 1.13 1.10 1.07 1.04 1.06 1.09 1.12 1.10 1.08 1.05 1.00 0.92 0.89 0.88 0.87 0.86 0.88 0.89 0.90
0.75 0.76 0.76 0.77 0.78 0.79 0.79 0.78 0.76 0.75 0.73 0.70 0.68 0.67 0.66 0.71 0.79 0.83 0.85 0.87 0.88 0.89 0.90 0.91 0.95 1.01 1.08 1.09 1.10 1.14 1.17 1.18 1.19 1.22 1.22 1.19 1.14 1.11 1.13 1.15 1.12 1.13 1.11 1.11 1.13 1.13 1.13 1.06 1.04 1.02 1.07 1.11 1.10 1.07 1.01 0.95 0.90 0.87 0.86 0.86 0.84 0.85 0.90
0.79 0.78 0.78 0.78 0.77 0.77 0.78 0.79 0.79 0.77 0.76 0.74 0.72 0.70 0.69 0.68 0.70 0.78 0.82 0.83 0.84 0.85 0.84 0.86 0.90 0.94 0.98 1.05 1.08 1.05 1.08 1.11 1.16 1.18 1.20 1.19 1.19 1.17 1.15 1.20 1.17 1.10 1.12 1.11 1.14 1.15 1.16 1.15 1.09 1.02 1.02 1.08 1.09 1.09 1.09 1.05 0.95 0.89 0.87 0.88 0.86 0.89 0.88
0.79 0.79 0.79 0.78 0.79 0.79 0.78 0.78 0.78 0.77 0.76 0.76 0.76 0.75 0.72 0.69 0.66 0.65 0.71 0.77 0.81 0.83 0.83 0.84 0.85 0.88 0.91 0.92 0.96 0.99 1.01 1.04 1.08 1.11 1.12 1.13 1.16 1.23 1.23 1.21 1.21 1.12 1.06 1.08 1.12 1.13 1.11 1.14 1.16 1.13 1.08 1.08 1.09 1.10 1.14 1.13 1.06 0.96 0.89 0.86 0.85 0.85 0.83
0.79 0.79 0.79 0.80 0.80 0.81 0.80 0.79 0.77 0.76 0.75 0.75 0.75 0.76 0.76 0.74 0.71 0.68 0.65 0.63 0.64 0.70 0.77 0.82 0.82 0.82 0.83 0.87 0.89 0.91 0.95 0.97 0.99 1.00 1.03 1.11 1.12 1.16 1.19 1.22 1.21 1.15 1.06 1.06 1.11 1.11 1.07 1.08 1.14 1.17 1.17 1.16 1.16 1.16 1.17 1.19 1.14 1.06 0.96 0.89 0.88 0.89 0.85
0.79 0.79 0.80 0.80 0.81 0.83 0.84 0.82 0.78 0.76 0.75 0.74 0.75 0.77 0.76 0.76 0.76 0.76 0.74 0.71 0.67 0.65 0.65 0.66 0.69 0.70 0.71 0.74 0.81 0.87 0.93 0.96 0.99 1.00 0.99 1.03 1.10 1.14 1.12 1.17 1.23 1.19 1.07 1.05 1.11 1.11 1.07 1.05 1.08 1.12 1.16 1.18 1.20 1.21 1.25 1.26 1.19 1.10 1.04 0.96 0.92 0.91 0.90
0.78 0.79 0.80 0.82 0.82 0.84 0.84 0.83 0.81 0.78 0.75 0.77 0.78 0.76 0.77 0.77 0.77 0.78 0.76 0.74 0.72 0.72 0.72 0.73 0.72 0.72 0.72 0.72 0.75 0.80 0.85 0.93 0.98 0.99 0.99 0.99 1.03 1.08 1.11 1.09 1.12 1.17 1.17 1.10 1.11 1.13 1.11 1.07 1.07 1.08 1.13 1.16 1.20 1.21 1.23 1.32 1.35 1.27 1.19 1.10 1.01 0.96 0.95
0.80 0.81 0.83 0.84 0.84 0.83 0.82 0.82 0.84 0.84 0.82 0.81 0.78 0.77 0.77 0.76 0.77 0.77 0.76 0.75 0.73 0.73 0.72 0.74 0.75 0.75 0.77 0.78 0.79 0.81 0.83 0.85 0.88 0.95 0.99 0.99 1.01 1.05 1.09 1.09 1.09 1.09 1.11 1.13 1.10 1.09 1.11 1.10 1.08 1.08 1.10 1.14 1.16 1.21 1.25 1.28 1.34 1.35 1.32 1.23 1.15 1.06 1.05
0.82 0.83 0.86 0.86 0.86 0.84 0.82 0.81 0.81 0.82 0.82 0.81 0.80 0.79 0.77 0.75 0.75 0.76 0.76 0.76 0.75 0.73 0.74 0.75 0.74 0.74 0.75 0.77 0.80 0.84 0.88 0.87 0.86 0.89 0.95 0.99 1.03 1.08 1.15 1.20 1.20 1.16 1.10 1.08 1.11 1.07 1.08 1.09 1.09 1.09 1.10 1.12 1.14 1.15 1.19 1.24 1.30 1.33 1.33 1.35 1.30 1.23 1.18
0.82 0.83 0.85 0.87 0.87 0.86 0.85 0.83 0.81 0.83 0.82 0.82 0.82 0.82 0.82 0.81 0.78 0.76 0.76 0.76 0.74 0.73 0.75 0.76 0.75 0.74 0.75 0.76 0.78 0.81 0.87 0.88 0.87 0.88 0.92 0.99 1.04 1.06 1.10 1.16 1.18 1.18 1.17 1.11 1.06 1.06 1.04 1.11 1.14 1.09 1.08 1.09 1.10 1.11 1.13 1.19 1.24 1.35 1.41 1.44 1.43 1.41 1.39
0.84 0.84 0.84 0.85 0.86 0.86 0.84 0.85 0.85 0.87 0.84 0.83 0.82 0.81 0.79 0.78 0.79 0.77 0.76 0.76 0.75 0.74 0.74 0.76 0.77 0.76 0.76 0.77 0.78 0.77 0.79 0.82 0.86 0.89 0.91 0.95 1.05 1.14 1.17 1.15 1.12 1.14 1.22 1.20 1.10 1.05 1.02 1.07 1.15 1.11 1.06 1.04 1.05 1.05 1.05 1.12 1.19 1.26 1.33 1.40 1.43 1.43 1.42
0.85 0.86 0.86 0.85 0.86 0.87 0.87 0.87 0.86 0.89 0.86 0.85 0.85 0.86 0.85 0.83 0.82 0.80 0.78 0.77 0.78 0.76 0.76 0.78 0.78 0.78 0.79 0.79 0.80 0.78 0.78 0.79 0.80 0.86 0.89 0.94 1.00 1.09 1.20 1.21 1.19 1.15 1.16 1.18 1.17 1.17 1.11 1.10 1.06 1.09 1.05 1.01 0.99 0.98 1.00 1.07 1.09 1.09 1.15 1.25 1.35 1.41 1.47
0.87 0.87 0.87 0.87 0.88 0.87 0.88 0.88 0.87 0.89 0.89 0.89 0.88 0.88 0.88 0.87 0.86 0.87 0.86 0.84 0.84 0.82 0.82 0.83 0.84 0.84 0.83 0.82 0.82 0.81 0.80 0.79 0.77 0.81 0.86 0.89 0.99 1.09 1.09 1.16 1.20 1.20 1.21 1.21 1.24 1.28 1.25 1.22 1.15 1.06 1.06 1.00 0.93 0.89 0.91 0.98 1.00 0.99 0.99 1.01 1.08 1.20 1.26
0.86 0.86 0.87 0.88 0.88 0.86 0.89 0.90 0.88 0.87 0.89 0.90 0.89 0.89 0.88 0.88 0.86 0.88 0.91 0.91 0.90 0.90 0.89 0.89 0.90 0.89 0.88 0.87 0.87 0.86 0.84 0.79 0.75 0.76 0.84 0.89 0.90 0.97 1.05 1.09 1.14 1.16 1.17 1.18 1.22 1.27 1.27 1.27 1.24 1.23 1.12 1.03 0.95 0.89 0.96 0.96 0.95 0.95 0.96 0.94 0.91 0.96 1.06
0.85 0.86 0.87 0.86 0.84 0.84 0.86 0.87 0.89 0.87 0.86 0.88 0.88 0.86 0.86 0.87 0.87 0.88 0.90 0.91 0.91 0.91 0.93 0.92 0.93 0.94 0.94 0.92 0.91 0.90 0.87 0.82 0.79 0.79 0.82 0.86 0.91 0.91 0.91 0.92 0.97 1.03 1.14 1.24 1.27 1.28 1.28 1.24 1.18 1.15 1.18 1.09 1.02 1.02 1.05 0.98 0.94 1.00 1.01 0.98 0.97 0.96 0.95
0.87 0.86 0.87 0.87 0.80 0.80 0.83 0.85 0.86 0.86 0.86 0.85 0.83 0.83 0.85 0.87 0.87 0.87 0.88 0.89 0.88 0.88 0.89 0.88 0.88 0.89 0.90 0.92 0.93 0.91 0.87 0.86 0.86 0.84 0.82 0.85 0.88 0.90 0.91 0.92 0.94 1.03 1.07 1.14 1.21 1.24 1.30 1.24 1.09 1.04 1.08 1.08 1.06 1.08 1.06 1.03 1.01 1.03 1.01 1.01 1.01 0.98 0.96
0.85 0.86 0.86 0.86 0.81 0.78 0.78 0.78 0.80 0.81 0.82 0.82 0.81 0.80 0.81 0.82 0.83 0.84 0.86 0.88 0.89 0.89 0.89 0.89 0.89 0.88 0.88 0.85 0.84 0.87 0.90 0.90 0.91 0.91 0.86 0.82 0.85 0.90 0.93 0.92 0.95 1.00 1.04 1.06 1.11 1.19 1.24 1.20 1.12 1.04 1.00 1.03 1.10 1.10 1.10 1.08 1.05 1.03 1.02 1.01 1.00 0.97 0.96
0.82 0.83 0.84 0.85 0.83 0.79 0.77 0.76 0.75 0.75 0.76 0.77 0.77 0.78 0.79 0.80 0.80 0.79 0.79 0.82 0.85 0.88 0.90 0.90 0.91 0.89 0.88 0.88 0.86 0.86 0.86 0.86 0.91 0.92 0.92 0.89 0.92 0.96 0.97 1.00 0.99 1.00 1.03 1.05 1.06 1.08 1.15 1.13 1.11 1.05 0.94 0.90 0.97 1.06 1.09 1.07 1.06 1.04 1.03 1.03 1.03 1.01 0.98
Wind_Speed
19 20 19 20 22 23 23 24 25 25 26 27 28 29 28 28 28 28 29 30 30 29 27 27 27 27 28 28 27 26 26 25 24 24 23 22 21 20 19 18 17 15 14 13 12 10 9 9 9 9 9 9 9 9 8 7 7 7 8 8 8 8 8
17 19 19 18 20 21 22 23 24 24 25 26 27 28 29 29 29 29 30 30 30 29 28 27 27 27 27 28 29 28 27 26 26 25 24 24 23 22 20 20 19 17 15 14 14 12 10 10 10 9 9 9 9 10 10 9 8 8 8 9 9 9 9
18 18 19 19 19 20 21 21 22 23 24 24 26 27 28 29 30 30 30 31 30 30 29 28 27 27 27 28 29 29 28 27 27 26 26 25 25 24 22 21 20 18 16 15 15 14 12 11 11 11 10 10 10 10 10 9 9 9 9 9 10 10 10
19 19 19 19 19 20 21 21 22 23 24 25 25 26 27 28 29 30 31 31 31 30 29 29 28 27 27 27 28 28 28 28 27 27 27 27 26 25 24 23 22 21 19 17 17 16 15 13 13 12 12 11 11 10 10 10 9 9 10 10 10 10 10
20 20 20 20 20 20 22 22 22 23 24 25 26 26 27 28 29 29 30 31 31 31 30 30 29 28 28 28 27 28 28 28 27 28 28 28 28 27 26 25 24 23 22 20 19 18 17 16 15 14 13 12 12 11 11 10 10 10 10 10 10 11 11
21 21 21 21 20 20 21 22 22 23 24 25 26 27 27 27 28 28 29 30 31 31 31 31 30 30 29 29 28 28 28 28 28 28 28 29 29 29 28 26 25 24 23 22 21 20 19 18 17 15 14 14 13 12 12 11 11 11 11 11 11 11 12
22 22 22 22 21 21 21 22 23 23 24 25 26 26 27 27 28 28 29 30 31 32 32 31 31 31 30 30 29 29 29 29 28 28 28 28 29 29 28 27 26 26 24 23 22 22 20 19 18 17 15 14 14 13 12 12 12 12 11 12 12 12 12
23 23 23 23 22 22 22 23 24 24 24 25 26 26 27 28 28 28 28 29 30 31 31 31 31 31 31 30 30 30 30 29 29 28 28 28 29 29 29 28 27 27 26 24 24 23 22 21 20 19 17 15 15 14 13 13 13 13 13 12 12 13 13
25 24 24 24 23 23 22 23 24 25 24 25 26 26 27 28 29 28 28 29 30 31 31 31 31 31 31 31 31 31 30 30 29 29 28 28 29 29 29 28 28 27 27 26 25 25 24 23 22 20 19 18 16 15 15 15 14 14 14 13 13 13 14
26 26 25 25 24 24 23 23 24 25 25 24 25 26 27 28 29 30 29 29 30 31 32 32 32 31 31 31 31 30 30 29 29 29 29 29 29 30 30 29 29 28 27 26 26 25 25 24 23 22 21 20 19 18 16 16 16 15 15 15 14 14 14
27 27 27 26 25 25 25 24 24 25 26 25 25 25 27 28 29 30 31 30 31 31 32 32 31 31 31 31 31 31 30 29 29 29 28 28 29 30 30 30 29 29 28 27 26 26 26 26 25 24 23 22 22 20 19 18 17 16 16 16 15 15 14
27 28 28 28 27 27 26 26 26 26 27 27 27 27 27 28 29 30 31 31 32 32 32 32 32 31 31 31 31 31 30 29 29 28 27 27 28 29 29 30 30 30 29 29 28 27 27 27 26 26 25 24 23 23 21 20 19 18 18 17 17 16 15
27 28 28 29 29 29 28 28 28 28 28 28 29 29 29 29 29 30 30 31 32 32 33 33 32 32 31 31 30 29 29 29 29 28 27 26 26 28 29 29 30 30 30 30 29 29 28 28 27 27 26 25 25 25 24 22 21 19 19 19 18 17 17
26 27 28 29 30 30 30 29 29 30 30 30 30 31 31 31 31 31 31 31 31 32 33 33 32 31 31 30 30 29 29 29 29 28 27 26 26 27 28 29 30 31 31 31 30 30 30 29 29 28 28 27 27 26 25 24 23 21 21 20 20 19 18
25 26 27 29 30 31 31 31 31 31 31 31 31 32 32 32 32 32 32 32 32 33 33 33 32 32 31 31 30 30 30 29 29 29 28 27 26 27 28 29 30 31 31 31 31 31 31 30 30 30 29 28 28 28 27 26 25 23 22 22 21 21 20
24 25 27 28 29 31 32 33 33 33 32 32 32 33 33 33 33 34 34 34 34 34 34 34 34 33 32 31 31 31 31 32 31 31 30 29 28 28 29 29 30 31 31 32 32 32 32 32 31 31 31 31 30 29 29 28 27 26 25 24 23 23 22
22 24 26 27 28 30 31 33 34 34 34 34 34 34 34 34 35 35 35 36 36 36 36 35 36 35 34 33 32 32 34 35 35 34 33 32 31 31 30 30 31 31 32 32 33 33 33 33 33 32 32 32 32 31 30 30 29 28 27 26 25 25 24
20 22 24 25 27 28 30 32 33 34 35 36 36 36 35 35 35 36 36 37 38 38 38 37 37 37 36 36 35 35 36 38 38 37 36 35 34 33 32 32 32 32 33 33 33 33 34 34 34 34 34 34 33 33 32 32 31 30 29 28 27 26 26
18 19 21 23 25 27 29 30 32 34 35 36 37 37 37 37 37 37 37 38 39 40 40 40 40 39 38 37 37 36 37 38 39 39 38 37 36 35 35 35 34 34 33 34 34 34 34 35 35 35 35 35 35 35 35 34 33 33 32 31 29 28 28
16 18 19 21 22 24 26 29 31 33 34 35 37 38 39 39 39 39 39 39 40 41 41 42 42 41 40 39 38 37 37 38 39 39 39 38 37 37 37 37 37 36 35 34 35 35 35 35 36 36 36 36 36 36 37 36 36 35 34 33 32 31 30
15 16 17 19 21 22 24 26 29 31 33 34 36 37 39 39 40 41 41 41 41 42 43 44 44 43 43 42 41 40 39 39 39 39 40 39 39 39 38 38 38 38 37 36 35 36 36 36 36 37 37 37 37 37 37 38 38 37 36 35 34 33 32
15 15 17 18 20 21 23 25 27 29 31 32 34 36 38 39 40 42 43 43 44 44 45 46 46 45 45 45 45 44 42 41 41 41 41 41 41 41 40 40 39 39 39 39 38 37 37 37 37 37 37 37 37 37 37 38 38 38 38 37 36 35 34
15 16 17 18 19 20 22 24 25 27 29 31 32 34 36 38 40 41 43 44 45 46 47 47 47 48 47 47 47 47 46 45 44 44 43 42 42 42 42 41 41 41 41 41 40 39 39 39 39 39 38 38 38 38 37 38 38 39 39 39 38 36 35
15 16 17 18 19 20 21 22 24 26 28 29 31 32 34 36 38 40 42 43 45 47 47 48 49 49 50 49 48 48 48 48 47 47 46 45 44 43 43 42 42 42 42 41 41 41 41 41 41 40 40 40 40 39 38 38 39 39 39 39 39 38 37
14 15 17 18 19 19 20 21 22 24 25 27 29 31 33 35 36 38 40 42 43 45 46 47 48 49 50 51 50 50 49 49 49 48 48 47 46 46 45 44 43 42 42 42 42 42 42 42 42 42 41 41 41 41 40 40 39 39 39 39 39 39 38
13 15 16 17 17 18 19 20 21 22 24 25 27 29 31 33 35 37 38 40 42 43 44 46 47 48 49 50 51 51 50 50 50 50 50 49 48 48 47 46 45 43 43 43 43 42 42 42 43 43 42 42 42 42 42 42 41 41 40 40 40 40 39
13 14 15 16 16 17 18 19 20 21 23 24 26 27 29 30 32 34 36 38 40 42 43 44 45 46 47 48 50 51 51 51 51 51 51 51 50 50 49 48 47 46 45 44 43 43 43 42 42 42 42 42 42 42 43 43 42 42 42 41 41 41 40
13 14 14 15 16 16 17 18 20 21 22 24 25 27 28 29 31 33 35 37 39 40 42 44 45 46 47 47 48 49 50 51 51 52 52 51 51 51 50 50 49 48 47 46 45 44 44 43 43 43 43 43 43 43 43 43 43 43 43 43 42 42 41
13 13 14 15 15 16 17 18 19 21 22 23 24 26 27 29 30 31 33 35 37 39 41 43 44 45 46 47 48 48 49 50 51 51 51 51 51 51 51 51 51 50 49 48 47 47 46 44 44 44 44 44 44 44 44 44 44 44 44 44 44 43 42
13 13 13 14 14 15 16 16 17 18 20 22 23 24 26 27 29 30 32 34 36 38 40 41 43 44 45 47 47 48 49 49 50 51 51 51 51 50 51 51 52 51 50 49 48 48 47 46 45 45 45 45 45 45 45 44 44 45 45 45 45 45 45
12 12 12 13 13 13 14 14 15 15 17 19 21 22 24 25 26 28 30 32 34 37 38 40 42 43 45 46 47 47 48 49 49 50 51 51 51 50 50 51 51 51 51 51 50 49 49 48 47 46 45 45 45 45 45 44 44 45 46 46 47 46 46
11 11 11 12 12 12 12 13 13 14 14 16 17 19 21 23 24 26 27 29 32 34 36 38 40 42 44 46 47 47 48 48 49 49 49 50 51 52 51 51 51 51 52 52 51 50 49 49 49 47 46 46 46 46 44 43 43 44 45 46 47 47 48
10 10 11 11 11 11 11 11 12 12 13 13 14 15 17 19 20 22 24 26 28 30 33 35 38 40 42 44 46 47 47 48 48 48 48 49 50 51 51 51 51 51 52 52 52 51 50 49 49 48 47 47 47 46 44 43 44 44 44 45 46 47 48
10 10 10 10 10 10 10 11 11 11 11 12 12 12 13 15 16 18 19 21 23 25 27 30 33 36 39 41 43 45 46 48 48 48 48 48 49 50 51 51 51 52 52 51 51 50 49 50 50 49 49 49 49 47 46 45 45 45 45 45 46 47 47
9 9 9 10 10 10 10 10 10 10 10 11 11 11 12 12 13 15 16 18 20 22 24 26 28 31 34 38 41 43 45 46 47 47 47 48 49 49 49 50 51 52 52 52 51 49 48 48 49 49 50 50 49 48 47 46 46 45 45 45 46 46 47
8 9 9 9 10 10 10 10 10 10 10 10 11 11 11 12 12 14 14 15 17 19 21 23 24 26 29 32 36 40 43 45 46 46 47 47 48 48 48 49 49 50 52 53 53 52 51 49 48 48 49 50 49 48 47 47 47 46 46 45 46 47 47
9 9 9 10 10 10 11 11 10 10 10 10 10 10 11 11 12 13 14 15 15 16 17 19 21 23 25 28 32 35 39 42 44 45 45 46 46 46 47 48 49 49 50 52 53 54 53 52 50 49 49 49 50 49 48 48 48 47 47 46 46 47 47
Wind_Direction
220 220 221 222 221 221 222 223 223 223 223 222 220 221 221 220 218 216 214 213 215 217 217 218 220 221 221 221 220 221 223 223 222 223 225 225 225 224 222 222 225 226 226 226 225 225 227 228 229 232 237 239 241 244 246 250 251 245 238 236 233 231 229
224 222 222 222 219 218 221 223 223 223 222 221 220 222 222 220 218 216 213 213 215 218 218 219 221 223 223 222 221 222 224 225 225 224 226 227 227 227 227 226 226 227 228 228 226 226 228 230 231 235 236 235 238 243 245 247 250 247 241 237 235 234 232
229 225 222 221 219 219 221 222 223 223 221 220 220 221 221 219 218 216 216 216 218 219 220 221 222 223 224 224 223 223 225 227 228 227 227 229 230 230 230 229 228 227 227 227 226 227 230 230 233 237 236 233 236 242 242 243 247 248 243 238 236 234 233
230 227 224 223 222 222 223 224 225 223 221 220 219 219 219 218 218 218 218 219 220 221 221 221 222 223 224 225 225 225 226 227 228 228 228 229 231 232 231 231 230 229 229 229 228 228 231 231 233 236 237 235 237 240 242 241 244 247 245 240 238 235 233
231 230 228 226 226 226 226 226 226 225 222 221 219 218 218 218 218 218 219 220 221 222 223 223 224 225 225 225 226 227 227 227 228 228 228 229 231 233 232 231 232 232 231 233 233 232 232 233 233 234 235 234 236 238 241 241 242 245 245 242 240 237 234
233 232 231 229 229 229 229 228 228 227 224 222 221 220 219 219 219 219 220 221 222 223 224 226 227 226 225 225 225 226 227 228 228 228 229 229 230 232 232 232 232 233 232 233 235 235 235 234 232 232 234 234 235 237 239 240 241 244 245 244 243 240 237
235 233 232 231 231 232 233 231 229 228 226 224 222 221 220 220 220 221 222 223 223 223 225 226 227 227 226 226 226 227 228 229 229 229 229 229 229 231 232 232 232 233 232 232 233 235 235 232 230 230 232 235 237 236 237 239 240 241 243 244 242 241 239
236 235 233 233 233 233 234 232 229 227 226 224 223 222 222 221 222 223 224 224 223 223 224 226 227 227 227 227 228 228 229 230 230 230 231 230 230 230 232 232 232 233 232 231 232 234 235 233 231 231 232 236 238 237 237 239 239 239 241 243 242 241 239
237 237 236 235 234 234 234 232 229 227 225 223 223 223 224 223 224 226 226 225 224 223 224 226 227 227 227 227 228 228 229 230 230 231 232 233 232 231 231 232 233 232 232 231 232 234 235 234 233 234 235 236 237 238 238 239 239 239 239 240 241 241 239
236 237 237 237 236 234 233 232 230 228 225 224 224 225 225 225 225 227 227 226 225 225 225 226 226 226 226 227 227 228 228 229 230 232 234 235 234 233 231 231 232 232 232 231 232 234 235 234 235 237 238 238 237 237 238 238 239 240 238 237 239 240 239
235 235 236 237 236 235 234 233 231 229 227 227 227 227 228 227 226 227 228 228 227 227 226 226 226 226 226 227 227 227 228 229 230 233 235 236 235 234 231 231 232 232 232 232 232 233 234 234 235 237 239 238 236 235 236 238 241 241 238 237 238 239 239
235 235 235 236 236 236 235 234 233 232 230 229 230 230 230 230 228 228 228 229 229 228 227 227 226 226 226 227 227 228 228 229 229 231 235 236 235 234 232 231 231 232 232 233 233 234 235 234 235 238 238 237 236 235 236 238 241 242 239 238 238 238 239
236 236 236 236 236 236 236 235 234 234 233 232 232 232 232 232 231 230 229 228 228 227 227 227 227 226 226 226 226 226 228 228 229 230 233 235 235 233 232 232 232 232 233 234 234 234 235 235 235 237 238 236 235 236 236 237 239 241 240 240 240 239 238
239 238 237 236 236 236 236 236 235 235 235 234 233 233 234 234 233 232 230 229 228 227 227 227 226 225 224 225 226 227 227 227 227 229 231 233 234 234 233 233 233 233 233 234 234 235 235 236 236 237 237 236 235 235 236 236 237 240 241 241 241 240 238
242 240 239 238 237 237 237 237 237 236 236 236 235 234 234 234 234 232 231 230 228 227 226 226 225 224 224 226 228 229 228 225 226 228 231 234 236 235 234 233 233 234 234 235 236 236 237 237 237 237 237 236 236 236 236 236 236 238 240 240 240 240 238
244 243 242 240 239 238 238 238 238 238 238 238 237 236 235 235 235 234 232 231 230 227 226 226 225 225 225 228 230 231 230 228 229 232 235 238 239 237 235 235 234 235 235 236 236 237 237 238 238 238 237 237 237 236 236 236 237 237 239 240 239 239 238
247 245 244 243 242 241 240 239 239 239 239 239 239 238 236 235 236 235 234 232 230 228 226 227 226 226 228 230 232 235 235 234 234 236 238 240 240 238 237 237 236 236 237 237 237 237 238 238 238 238 238 237 237 238 238 237 238 238 239 240 240 239 238
248 248 247 246 245 243 242 241 241 240 240 240 240 240 238 236 236 236 235 232 230 229 228 228 227 229 232 235 238 240 240 238 237 237 239 240 240 239 239 239 238 238 238 238 238 238 238 238 239 239 239 239 238 239 239 239 239 240 240 240 240 240 239
249 248 248 248 247 246 245 244 243 242 241 241 240 241 240 238 237 236 235 233 231 230 230 230 230 232 235 238 241 242 241 238 237 238 239 240 240 239 239 240 240 240 239 239 239 239 239 239 239 239 240 240 240 239 239 240 240 240 240 241 241 240 239
252 250 249 249 249 249 248 246 245 244 243 242 241 241 241 240 238 237 236 234 232 232 232 233 234 235 237 240 241 242 240 238 237 239 239 240 241 240 240 240 241 240 240 240 240 240 240 240 240 240 240 241 241 241 240 240 240 240 240 241 241 241 240
255 254 253 252 251 250 250 248 247 245 244 243 242 241 241 241 240 238 237 236 235 235 235 235 236 237 239 242 242 241 241 240 239 239 240 241 242 241 241 241 241 241 241 240 240 241 241 241 241 240 240 241 241 242 242 241 240 240 241 241 241 242 241
259 259 258 257 255 254 252 250 248 246 245 244 243 242 241 241 241 240 239 238 238 238 238 238 239 240 241 243 242 242 241 241 241 241 241 242 243 242 241 242 242 242 242 241 241 241 241 241 241 241 241 240 241 241 242 242 240 240 240 241 242 242 242
263 263 263 262 261 259 256 253 250 246 245 244 244 243 242 242 241 241 241 241 240 240 241 241 241 241 242 243 243 243 243 242 242 242 242 242 242 242 242 242 242 242 243 242 242 242 242 242 242 242 241 241 240 241 242 242 240 239 240 241 241 242 242
265 265 266 266 265 264 261 257 253 248 246 244 243 243 243 242 242 242 242 242 242 242 242 242 243 243 243 243 244 244 244 244 244 243 243 242 242 242 242 243 242 242 243 243 243 243 243 242 242 242 242 241 240 240 241 241 240 240 240 241 241 241 242
268 268 268 269 268 267 264 259 255 251 248 246 245 244 243 243 243 243 243 243 243 243 243 243 243 243 243 243 244 244 244 244 244 244 244 243 242 242 242 243 242 242 242 243 243 243 243 243 242 242 242 242 241 241 241 241 241 240 240 241 241 241 242
275 274 273 272 271 269 266 261 256 252 250 249 247 247 246 246 245 244 244 244 244 244 244 244 244 244 244 244 243 243 244 244 244 244 244 243 243 242 242 242 242 242 242 242 242 243 243 243 242 242 242 242 242 241 241 242 242 241 241 241 241 242 242
281 281 280 278 275 273 269 265 259 255 252 250 249 248 248 248 247 247 246 245 245 245 245 245 245 245 245 245 244 244 244 244 244 244 244 244 243 242 242 242 242 242 242 242 242 242 243 243 242 241 242 242 242 241 241 241 242 242 242 242 242 242 243
285 286 286 285 282 278 275 271 266 261 257 254 252 251 250 249 249 248 248 247 247 247 247 246 246 245 245 245 245 245 244 244 244 243 243 243 243 242 241 241 242 242 242 243 242 241 242 243 242 241 241 241 242 242 241 241 241 242 243 243 243 243 244
289 290 292 292 290 286 281 277 272 266 262 259 257 255 253 252 252 251 250 250 250 249 249 248 248 247 246 245 245 245 245 244 244 243 243 243 243 242 241 241 241 242 242 242 242 241 241 242 242 242 242 242 242 243 242 242 242 243 244 244 244 245 245
293 295 296 298 298 295 289 284 279 273 267 263 261 259 257 256 255 254 253 252 252 252 252 251 250 248 247 246 245 245 245 244 243 243 242 242 241 241 241 240 239 240 241 241 241 241 241 242 242 242 242 242 242 243 244 244 244 244 244 245 246 246 246
295 297 299 300 303 303 298 293 287 282 275 269 265 263 261 259 258 257 256 255 254 254 254 253 252 250 248 247 246 245 245 244 243 243 242 241 241 241 241 239 238 238 239 240 240 241 241 242 242 242 242 242 243 243 244 245 246 246 246 246 247 247 247
296 299 301 302 303 304 303 300 295 290 284 278 273 268 264 262 261 260 260 259 258 257 256 255 253 251 249 248 247 245 244 243 243 242 242 241 241 241 240 239 238 238 238 239 240 240 241 242 242 242 242 242 242 243 244 245 246 247 247 248 248 248 248
298 300 304 306 307 305 304 304 305 301 296 290 285 278 272 267 266 265 264 263 262 260 259 257 255 252 250 248 246 245 244 243 242 242 242 241 241 240 240 239 239 238 238 238 239 239 240 240 241 241 242 242 243 244 245 246 246 247 248 249 249 249 249
299 302 306 309 312 312 309 309 310 309 305 301 298 293 286 280 276 274 272 270 269 266 263 261 258 255 251 248 245 244 243 242 242 241 241 241 241 241 240 240 239 238 237 237 237 237 238 238 240 241 242 242 244 245 246 247 247 248 248 249 249 249 249
301 304 308 312 316 318 316 315 315 314 310 307 305 302 298 292 288 285 281 279 276 273 270 266 262 259 255 250 245 242 242 242 242 242 241 241 241 242 241 240 239 238 237 236 236 236 237 238 239 241 242 242 244 245 246 247 248 249 249 249 249 249 250
303 305 308 312 317 320 320 319 318 316 313 310 307 304 301 298 296 294 291 288 285 281 276 271 266 263 259 255 249 244 242 241 241 241 241 241 241 242 242 241 240 238 237 236 236 236 237 239 240 242 243 243 244 245 246 247 247 249 250 250 249 249 250
305 305 307 309 314 318 321 321 320 318 315 313 311 308 305 303 301 300 298 297 295 292 286 279 272 268 264 259 254 248 244 242 241 241 241 241 242 242 241 241 240 239 238 237 237 237 239 240 241 242 244 245 245 245 246 247 247 248 249 250 249 249 250